Wilmington, OH

3:07 AM EDT on July 26, 2017 (GMT -0400)
Airborne

Weather History for KILN - June, 2013

Change the Weather History Date:

Saturday, June 29, 2013

  Actual Average (KFFO) Record (KFFO)
Temperature  
Mean Temperature 68 °F -  
Max Temperature 75 °F 81 °F 100 °F (2012)
Min Temperature 61 °F 60 °F 53 °F (2004)
Cooling Degree Days 3    
Growing Degree Days 18 (Base 50)    
Moisture  
Dew Point 63 °F    
Average Humidity 80    
Maximum Humidity 97    
Minimum Humidity 64    
Precipitation  
Precipitation 0.07 in - - ()
Sea Level Pressure  
Sea Level Pressure 29.62 in    
Wind  
Wind Speed 5 mph (SW)    
Max Wind Speed 9 mph    
Max Gust Speed -    
Visibility 9 miles    
Events Rain , Thunderstorm    
Averages and records for this station are not official NWS values.
T = Trace of Precipitation, MM = Missing Value Source: NWS Daily Summary

Daily Weather History Graph

Daily Weather History Graph

Search for Another Location

Airport or City:

Trip Planner

Search our weather history database for the weather conditions in past years. The results will help you decide how hot, cold, wet, or windy it might be!

Date:

Astronomy

Jun. 29, 2013 Rise Set
Actual Time 6:11 AM EDT 9:06 PM EDT
Civil Twilight 5:38 AM EDT 9:38 PM EDT
Nautical Twilight 4:57 AM EDT 10:19 PM EDT
Astronomical Twilight 4:10 AM EDT 11:06 PM EDT
Moon 12:36 AM EDT (6/29) 1:19 PM EDT (6/29)
Length of Visible Light 15h 59m
Length of Day
14h 55m
Waning Gibbous, 56% of the Moon is Illuminated
Jun 29
Waning Gibbous
Jun 30
Last Quarter
Jul 8
New
Jul 15
First Quarter
Jul 22
Full

Hourly Weather History & Observations

Time (EDT) Temp. Dew Point Humidity Pressure Visibility Wind Dir Wind Speed Gust Speed Precip Events Conditions
12:54 AM 64.0 °F 61.0 °F 90% 29.60 in 10.0 mi WSW 6.9 mph - N/A   Scattered Clouds
1:54 AM 64.0 °F 61.0 °F 90% 29.58 in 10.0 mi WSW 5.8 mph - N/A   Mostly Cloudy
2:54 AM 63.0 °F 61.0 °F 93% 29.57 in 10.0 mi Calm Calm - N/A   Partly Cloudy
3:54 AM 61.0 °F 60.1 °F 97% 29.57 in 10.0 mi SSW 3.5 mph - N/A   Overcast
4:54 AM 61.0 °F 60.1 °F 97% 29.57 in 8.0 mi SSW 3.5 mph - N/A   Clear
5:54 AM 62.1 °F 60.1 °F 93% 29.60 in 8.0 mi WSW 3.5 mph - N/A   Clear
6:54 AM 61.0 °F 60.1 °F 97% 29.61 in 5.0 mi WSW 3.5 mph - N/A   Clear
7:54 AM 66.9 °F 63.0 °F 87% 29.61 in 9.0 mi WSW 6.9 mph - N/A   Clear
8:12 AM 66.2 °F 62.6 °F 88% 29.62 in 10.0 mi WSW 9.2 mph - N/A   Partly Cloudy
8:54 AM 68.0 °F 63.0 °F 84% 29.61 in 10.0 mi West 8.1 mph - N/A   Partly Cloudy
9:47 AM 69.8 °F 62.6 °F 78% 29.63 in 10.0 mi SW 6.9 mph - N/A   Mostly Cloudy
9:54 AM 70.0 °F 63.0 °F 78% 29.61 in 10.0 mi West 5.8 mph - N/A   Mostly Cloudy
10:11 AM 71.6 °F 62.6 °F 73% 29.63 in 10.0 mi West 6.9 mph - N/A   Mostly Cloudy
10:54 AM 71.1 °F 63.0 °F 75% 29.62 in 10.0 mi WSW 6.9 mph - N/A   Mostly Cloudy
11:54 AM 73.9 °F 63.0 °F 68% 29.62 in 10.0 mi WSW 6.9 mph - N/A   Scattered Clouds
12:27 PM 71.6 °F 62.6 °F 73% 29.63 in 10.0 mi West 6.9 mph - N/A Thunderstorm Scattered Clouds
12:42 PM 75.2 °F 62.6 °F 65% 29.63 in 10.0 mi West 5.8 mph - N/A   Partly Cloudy
12:54 PM 75.0 °F 62.1 °F 64% 29.60 in 10.0 mi SW 6.9 mph - N/A   Scattered Clouds
1:54 PM 71.1 °F 64.0 °F 78% 29.61 in 3.0 mi SW 9.2 mph - 0.00 in Rain Light Rain
2:01 PM 69.8 °F 64.4 °F 83% 29.62 in 2.0 mi WSW 4.6 mph - 0.05 in Rain Rain
2:04 PM 69.8 °F 64.4 °F 83% 29.62 in 3.0 mi SW 5.8 mph - 0.06 in Rain Light Rain
2:54 PM 70.0 °F 64.9 °F 84% 29.60 in 10.0 mi SW 6.9 mph - 0.07 in Rain Light Rain
3:54 PM 72.0 °F 64.9 °F 78% 29.61 in 10.0 mi SSW 6.9 mph - 0.00 in   Mostly Cloudy
4:54 PM 75.0 °F 64.0 °F 69% 29.62 in 10.0 mi SSW 6.9 mph - N/A   Mostly Cloudy
5:08 PM 75.2 °F 62.6 °F 65% 29.63 in 10.0 mi SW 3.5 mph - N/A   Scattered Clouds
5:16 PM 75.2 °F 62.6 °F 65% 29.64 in 10.0 mi SW 4.6 mph - N/A   Mostly Cloudy
5:30 PM 75.2 °F 62.6 °F 65% 29.64 in 10.0 mi SW 4.6 mph - N/A   Mostly Cloudy
5:54 PM 73.9 °F 63.0 °F 68% 29.62 in 10.0 mi SSW 8.1 mph - N/A   Mostly Cloudy
6:22 PM 73.4 °F 62.6 °F 69% 29.61 in 10.0 mi SSW 9.2 mph - N/A Thunderstorm Partly Cloudy
6:37 PM 73.4 °F 62.6 °F 69% 29.62 in 10.0 mi SSW 8.1 mph - N/A   Partly Cloudy
6:54 PM 72.0 °F 63.0 °F 73% 29.62 in 10.0 mi SSW 4.6 mph - N/A   Clear
7:54 PM 71.1 °F 64.9 °F 81% 29.63 in 10.0 mi WNW 3.5 mph - 0.00 in Rain Light Rain
8:54 PM 68.0 °F 63.0 °F 84% 29.64 in 10.0 mi ENE 4.6 mph - 0.00 in   Mostly Cloudy
9:15 PM 68.0 °F 62.6 °F 83% 29.69 in 10.0 mi Calm Calm - N/A   Mostly Cloudy
9:45 PM 68.0 °F 62.6 °F 83% 29.67 in 10.0 mi East 3.5 mph - N/A   Mostly Cloudy
9:54 PM 66.9 °F 63.0 °F 87% 29.65 in 10.0 mi Calm Calm - N/A   Scattered Clouds
10:54 PM 64.9 °F 62.1 °F 90% 29.66 in 10.0 mi Calm Calm - N/A   Clear
11:54 PM 64.9 °F 62.1 °F 90% 29.66 in 9.0 mi Calm Calm - N/A   Scattered Clouds